When you browse on this site, cookies collect data to enhance your experience and personalize the content and advertising you see.
Visit our Privacy Policy to learn more. By continuing to use the site, you agree to this use of cookies and data.
  • In Hungary
  • List of Countries
  • For 7 days
  • Water Temperature
  • Weather Map
  • News
  • Weather Widgets
  • user-avatar
    Login

    Hourly Weather Migunovo

    Today, 22 January, Wednesday

    Time Temperature Precipitation Wind Pressure Humidity
    00:00 -3°C° 0 mm 6 mps 733 mmHg 77%
    01:00 -2°C° 0 mm 5 mps 733 mmHg 78%
    02:00 -2°C° 0 mm 5 mps 732 mmHg 80%
    03:00 -2°C° 0 mm 5 mps 731 mmHg 80%
    04:00 -2°C° 0 mm 5 mps 731 mmHg 81%
    05:00 -4°C° 0 mm 5 mps 730 mmHg 82%
    06:00 -4°C° 0.1 mm 5 mps 729 mmHg 85%
    07:00 -4°C° 0.1 mm 5 mps 729 mmHg 88%
    08:00 -2°C° 0 mm 4 mps 729 mmHg 91%
    09:00 -2°C° 0.5 mm 4 mps 728 mmHg 92%
    10:00 -2°C° 0.5 mm 4 mps 728 mmHg 93%
    11:00 -2°C° 0.5 mm 4 mps 727 mmHg 94%
    12:00 -2°C° 0.4 mm 5 mps 727 mmHg 87%
    13:00 -2°C° 0.4 mm 5 mps 727 mmHg 81%
    14:00 -2°C° 0.4 mm 5 mps 727 mmHg 75%
    15:00 -4°C° 0 mm 5 mps 728 mmHg 77%
    16:00 -4°C° 0 mm 5 mps 728 mmHg 79%
    17:00 -4°C° 0 mm 4 mps 729 mmHg 81%
    18:00 -5°C° 0 mm 5 mps 729 mmHg 81%
    19:00 -5°C° 0 mm 5 mps 730 mmHg 80%
    20:00 -5°C° 0 mm 5 mps 730 mmHg 80%
    21:00 -6°C° 0 mm 5 mps 731 mmHg 80%
    22:00 -6°C° 0 mm 6 mps 731 mmHg 81%
    23:00 -6°C° 0 mm 6 mps 731 mmHg 81%

    Tomorrow, 23 January, Thursday

    Time Temperature Precipitation Wind Pressure Humidity
    00:00 -6°C° 0.1 mm 6 mps 732 mmHg 80%
    01:00 -8°C° 0.1 mm 6 mps 733 mmHg 79%
    02:00 -8°C° 0.1 mm 6 mps 734 mmHg 79%
    03:00 -8°C° 0 mm 6 mps 734 mmHg 76%
    04:00 -9°C° 0 mm 6 mps 734 mmHg 73%
    05:00 -9°C° 0 mm 6 mps 735 mmHg 70%
    06:00 -9°C° 0 mm 6 mps 735 mmHg 70%
    07:00 -8°C° 0 mm 5 mps 736 mmHg 69%
    08:00 -8°C° 0 mm 5 mps 737 mmHg 68%
    09:00 -8°C° 0 mm 5 mps 737 mmHg 65%
    10:00 -8°C° 0 mm 6 mps 737 mmHg 63%
    11:00 -8°C° 0 mm 6 mps 738 mmHg 60%
    12:00 -8°C° 0 mm 6 mps 738 mmHg 62%
    13:00 -6°C° 0 mm 6 mps 738 mmHg 64%
    14:00 -6°C° 0 mm 6 mps 738 mmHg 66%
    15:00 -6°C° 0 mm 6 mps 738 mmHg 68%
    16:00 -6°C° 0 mm 5 mps 738 mmHg 69%
    17:00 -6°C° 0 mm 5 mps 738 mmHg 71%
    18:00 -5°C° 0 mm 4 mps 739 mmHg 73%
    19:00 -6°C° 0 mm 3 mps 739 mmHg 76%
    20:00 -5°C° 0 mm 2 mps 739 mmHg 78%
    21:00 -5°C° 0 mm 2 mps 739 mmHg 80%
    22:00 -5°C° 0 mm 2 mps 739 mmHg 83%
    23:00 -5°C° 0 mm 2 mps 739 mmHg 85%

    Day after tomorrow, 24 January, Friday

    Time Temperature Precipitation Wind Pressure Humidity
    00:00 -5°C° 0 mm 3 mps 739 mmHg 86%
    01:00 -5°C° 0 mm 3 mps 739 mmHg 87%
    02:00 -5°C° 0 mm 3 mps 738 mmHg 87%
    03:00 -5°C° 0 mm 4 mps 738 mmHg 87%
    04:00 -4°C° 0 mm 4 mps 737 mmHg 87%
    05:00 -4°C° 0 mm 4 mps 736 mmHg 87%
    06:00 -4°C° 0.1 mm 4 mps 735 mmHg 87%
    07:00 -3°C° 0.1 mm 4 mps 735 mmHg 88%
    08:00 -3°C° 0.1 mm 4 mps 734 mmHg 89%
    09:00 -2°C° 0.3 mm 4 mps 733 mmHg 92%
    10:00 -2°C° 0.3 mm 4 mps 733 mmHg 94%
    11:00 -1°C° 0.3 mm 5 mps 732 mmHg 96%
    12:00 0°C° 0.1 mm 5 mps 732 mmHg 96%
    13:00 0°C° 0.1 mm 5 mps 731 mmHg 96%
    14:00 +1°C° 0.1 mm 5 mps 731 mmHg 96%
    15:00 +1°C° 0 mm 5 mps 731 mmHg 94%
    16:00 +1°C° 0 mm 5 mps 730 mmHg 92%
    17:00 +1°C° 0 mm 5 mps 730 mmHg 91%
    18:00 +1°C° 0.1 mm 5 mps 730 mmHg 92%
    19:00 +1°C° 0.1 mm 4 mps 730 mmHg 93%
    20:00 +1°C° 0.1 mm 4 mps 730 mmHg 94%
    21:00 +1°C° 0.2 mm 4 mps 730 mmHg 93%
    22:00 +1°C° 0.2 mm 5 mps 730 mmHg 92%
    23:00 0°C° 0.2 mm 5 mps 730 mmHg 92%

    25 January, Saturday

    Time Temperature Precipitation Wind Pressure Humidity
    00:00 0°C° 0.2 mm 4 mps 730 mmHg 93%
    01:00 0°C° 0.2 mm 4 mps 730 mmHg 94%
    02:00 -1°C° 0.2 mm 4 mps 730 mmHg 95%
    03:00 -1°C° 0 mm 4 mps 730 mmHg 91%
    04:00 -1°C° 0 mm 4 mps 730 mmHg 88%
    05:00 -1°C° 0 mm 4 mps 730 mmHg 84%
    06:00 -2°C° 0 mm 4 mps 730 mmHg 87%
    07:00 -3°C° 0 mm 4 mps 730 mmHg 90%
    08:00 -2°C° 0 mm 3 mps 729 mmHg 92%
    09:00 -2°C° 0 mm 4 mps 729 mmHg 89%
    10:00 -2°C° 0 mm 5 mps 729 mmHg 85%
    11:00 -2°C° 0 mm 6 mps 729 mmHg 81%
    12:00 -2°C° 0 mm 6 mps 729 mmHg 78%
    13:00 -2°C° 0 mm 6 mps 729 mmHg 75%
    14:00 -1°C° 0 mm 6 mps 729 mmHg 72%
    15:00 -2°C° 0.1 mm 6 mps 729 mmHg 72%
    16:00 -3°C° 0.1 mm 6 mps 729 mmHg 73%
    17:00 -3°C° 0.1 mm 7 mps 729 mmHg 73%
    18:00 -4°C° 0 mm 6 mps 730 mmHg 73%
    19:00 -4°C° 0 mm 6 mps 731 mmHg 73%
    20:00 -4°C° 0 mm 5 mps 731 mmHg 73%
    21:00 -5°C° 0 mm 5 mps 732 mmHg 74%
    22:00 -5°C° 0 mm 5 mps 733 mmHg 75%
    23:00 -5°C° 0 mm 5 mps 733 mmHg 76%

    26 January, Sunday

    Time Temperature Precipitation Wind Pressure Humidity
    00:00 -5°C° 0 mm 5 mps 734 mmHg 76%
    01:00 -5°C° 0 mm 5 mps 735 mmHg 77%
    02:00 -5°C° 0 mm 5 mps 736 mmHg 77%
    03:00 -6°C° 0 mm 5 mps 736 mmHg 78%
    04:00 -5°C° 0 mm 4 mps 737 mmHg 78%
    05:00 -5°C° 0 mm 4 mps 737 mmHg 79%
    06:00 -5°C° 0 mm 4 mps 738 mmHg 80%
    07:00 -5°C° 0 mm 4 mps 739 mmHg 80%
    08:00 -5°C° 0 mm 4 mps 739 mmHg 81%
    09:00 -5°C° 0 mm 3 mps 740 mmHg 79%
    10:00 -4°C° 0 mm 3 mps 741 mmHg 76%
    11:00 -4°C° 0 mm 3 mps 741 mmHg 74%
    12:00 -2°C° 0 mm 3 mps 741 mmHg 72%
    13:00 -2°C° 0 mm 3 mps 742 mmHg 71%
    14:00 -2°C° 0 mm 2 mps 742 mmHg 69%
    15:00 -2°C° 0 mm 2 mps 742 mmHg 72%
    16:00 -2°C° 0 mm 2 mps 742 mmHg 75%
    17:00 -3°C° 0 mm 2 mps 742 mmHg 78%
    18:00 -2°C° 0 mm 2 mps 742 mmHg 79%
    19:00 -2°C° 0 mm 2 mps 742 mmHg 81%
    20:00 -2°C° 0 mm 2 mps 742 mmHg 83%
    21:00 -2°C° 0 mm 2 mps 742 mmHg 87%
    22:00 -2°C° 0 mm 2 mps 742 mmHg 90%
    23:00 -1°C° 0 mm 3 mps 742 mmHg 94%

    27 January, Monday

    Time Temperature Precipitation Wind Pressure Humidity
    00:00 -1°C° 0 mm 3 mps 742 mmHg 93%
    01:00 -1°C° 0 mm 3 mps 741 mmHg 92%
    02:00 -1°C° 0 mm 3 mps 741 mmHg 91%
    03:00 -1°C° 0 mm 3 mps 741 mmHg 93%
    04:00 -1°C° 0 mm 3 mps 741 mmHg 94%
    05:00 -1°C° 0 mm 3 mps 740 mmHg 95%
    06:00 -1°C° 0 mm 3 mps 740 mmHg 95%
    07:00 -1°C° 0 mm 3 mps 740 mmHg 96%
    08:00 0°C° 0 mm 3 mps 740 mmHg 96%
    09:00 0°C° 0 mm 3 mps 740 mmHg 95%
    10:00 0°C° 0 mm 3 mps 740 mmHg 94%
    11:00 -1°C° 0 mm 4 mps 740 mmHg 93%
    12:00 -1°C° 0 mm 4 mps 739 mmHg 91%
    13:00 -1°C° 0 mm 4 mps 739 mmHg 89%
    14:00 -1°C° 0 mm 4 mps 738 mmHg 87%
    15:00 -1°C° 0 mm 4 mps 738 mmHg 90%
    16:00 -2°C° 0 mm 4 mps 737 mmHg 92%
    17:00 -2°C° 0 mm 4 mps 737 mmHg 95%
    18:00 -2°C° 0.2 mm 4 mps 736 mmHg 96%
    19:00 -2°C° 0.2 mm 4 mps 736 mmHg 96%
    20:00 -1°C° 0.2 mm 4 mps 735 mmHg 97%
    21:00 -1°C° 0.3 mm 4 mps 735 mmHg 97%
    22:00 -1°C° 0.3 mm 4 mps 734 mmHg 97%
    23:00 0°C° 0.3 mm 3 mps 734 mmHg 97%
    Show more